Regional Weather Roundup
Issued by NWS

Home | Current Version | Previous Version | Graphics & Text | Print | Product List | Glossary On
Versions: 1 2 3 4 5 6 7 8 9 10 11 12 13 14 15 16 17 18 19 20 21 22 23 24 25 26 27 28 29 30 31 32 33 34 35 36 37 38 39 40 41 42 43 44 45 46 47 48 49 50
000
ASUS44 KMEG 030000
RWRTN
TENNESSEE HOURLY STATE WEATHER ROUNDUP
NATIONAL WEATHER SERVICE MEMPHIS TN
600 PM CST MON MAR 02 2015

TNZ002-004-019-021-049-052-054-088>092-030100-
WEST TENNESSEE

CITY           SKY/WX    TMP DP  RH WIND       PRES   REMARKS
MEMPHIS INTL   CLOUDY    41  36  82 NE7       30.31F
NWS MEMPHIS      N/A     40 N/A N/A MISG        N/A
JACKSON        CLOUDY    47  31  53 CALM      30.31F
DYERSBURG      CLOUDY    39  18  41 NE7       30.34F WCI  34
UNION CITY     CLOUDY    37  25  60 NE6       30.32F WCI  33
PARIS          CLOUDY    39  25  56 NE8       30.32S WCI  34
LEXINGTON      CLOUDY    48  28  46 NE3       30.30S
SAVANNAH       CLOUDY    46  39  76 CALM      30.30F
$$

TNZ008-025-027-028-033-062-065-066-030100-
NORTH MIDDLE TENNESSEE

CITY           SKY/WX    TMP DP  RH WIND       PRES   REMARKS
NASHVILLE      MOCLDY    46  30  53 E5        30.32F
CLARKSVILLE    CLOUDY    42  27  55 E8        30.33F
COOKEVILLE       N/A     39  32  75 CALM      30.31S
CROSSVILLE     CLEAR     41  29  62 CALM      30.31R
$$

TNZ061-075-076-078-094-096-097-030100-
SOUTH MIDDLE TENNESSEE

CITY           SKY/WX    TMP DP  RH WIND       PRES   REMARKS
FAYETTEVILLE   CLOUDY    43  37  81 NE7         N/A
TULLAHOMA      CLOUDY    41  34  75 NE7       30.30F
WINCHESTER     CLOUDY    43  37  81 N5        30.31S
COLUMBIA         N/A     46  36  66 NE3       30.29F
SHELBYVILLE    CLOUDY    45  36  70 NE6       30.31F
$$

TNZ017-018-042-046-047-030100-
NORTHEAST TENNESSEE

CITY           SKY/WX    TMP DP  RH WIND       PRES   REMARKS
TRI CITIES     MOCLDY    41  28  60 SW5       30.34R
ELIZABETHTON   CLEAR     36  30  80 CALM      30.32S
$$

TNZ012-013-036-069-073-074-030100-
CENTRAL EAST TENNESSEE

CITY           SKY/WX    TMP DP  RH WIND       PRES   REMARKS
KNOXVILLE      NOT AVBL
OAK RIDGE      CLEAR     45  30  55 NE7       30.32F
GATLINBURG     CLOUDY    43  37  81 CALM      30.33S
$$

TNZ083-085-099-030100-
SOUTHEAST TENNESSEE

CITY           SKY/WX    TMP DP  RH WIND       PRES   REMARKS
CHATTANOOGA    MOCLDY    50  38  63 N7        30.30R
$$

SKY/WX REPORTED AS FAIR MEANS FEW OR NO CLOUDS BELOW
12 THOUSAND FEET.



USA.gov is the U.S. government's official web portal to all federal, state and local government web resources and services.